Lid_Strength_Index
-1 1 1 2 9 9 14 11 7 8 9 5 4 5 6 6 8 11 1 0 0 0 -1 -1 -1 -1 -1 -2 -2 -2 -2 -2 -1 -1 -1 -1 -1 -2 -2 -2 -2 -2 -2 -1 -1 -1 -1 -1 -1
-0 0 1 4 10 15 14 8 9 7 5 4 4 5 6 7 4 4 3 0 -0 -0 -1 -1 -1 -2 -2 -2 -2 -2 -2 -1 -1 -1 -1 -1 -2 -2 -2 -2 -2 -2 -1 -1 -1 -1 -1 -1 -1
-0 0 5 8 10 12 14 9 7 6 5 5 5 3 5 6 3 3 1 0 -0 -0 -1 -1 -2 -2 -2 -2 -1 -1 -1 -1 -1 -1 -2 -2 -2 -2 -2 -2 -2 -1 -1 -1 -1 -1 -1 -1 -1
2 3 4 10 11 8 8 6 5 6 5 4 4 6 4 2 2 1 0 0 0 -0 -1 -1 -2 -2 -2 -1 -1 -1 -1 -1 -1 -1 -2 -2 -2 -2 -2 -2 -2 -1 -1 -1 -1 -1 -1 -1 -1
2 4 9 9 9 7 6 5 5 6 5 5 4 6 6 2 1 1 0 0 1 0 -0 -1 -2 -2 -2 -1 -2 -1 -1 -2 -2 -2 -2 -2 -2 -2 -2 -2 -2 -2 -1 -1 -1 -1 -1 -1 -1
7 6 11 11 9 7 5 4 5 5 5 5 5 5 5 2 2 1 0 0 -0 0 -0 -1 -1 -2 -2 -2 -1 -1 -2 -2 -2 -2 -2 -2 -2 -2 -2 -2 -2 -1 -1 -1 -1 -1 -1 -1 -2
8 10 11 10 8 7 6 4 5 5 5 5 4 7 5 3 1 1 0 0 -0 -0 -0 -1 -1 -1 -2 -1 -1 -2 -2 -2 -2 -2 -2 -2 -2 -2 -2 -2 -2 -1 -1 -1 -1 -1 -2 -2 -2
6 8 11 10 9 10 5 5 4 5 6 3 3 7 7 3 1 1 0 0 0 0 -0 -0 -1 -1 -1 -1 -1 -2 -2 -2 -2 -2 -1 -1 -2 -2 -3 -3 -3 -2 -1 -2 -2 -2 -2 -2 -3
4 11 14 11 9 7 5 6 4 3 5 4 3 4 3 2 1 1 1 1 1 0 0 0 -0 -0 -1 -1 -1 -2 -2 -2 -2 -1 -2 -2 -1 -1 -1 -2 -3 -2 -2 -2 -2 -2 -2 -2 -2
7 10 11 8 8 8 5 5 5 5 5 6 6 3 2 2 2 2 2 2 2 1 1 0 -0 -0 -1 -1 -1 -1 -1 -1 -1 -1 -1 -0 -1 -2 -1 -2 -3 -3 -3 -3 -3 -2 -2 -2 -1
7 11 8 8 7 6 5 5 5 6 7 6 7 5 4 3 2 3 2 2 2 1 1 0 0 -0 -0 -0 -0 -1 -1 -1 -1 -1 -1 -2 -2 -2 -2 -1 -0 -1 -2 -1 -1 -1 -1 -1 -1
7 6 7 6 5 5 5 4 5 5 5 3 4 4 3 3 3 3 2 2 2 1 0 0 -0 -0 -0 -0 -1 -1 -0 -1 1 -1 -2 -1 -1 -1 -1 -0 -1 -1 -1 -1 -0 -0 -1 -1 -1
6 5 6 5 4 4 4 5 5 5 3 3 3 3 3 3 3 2 2 1 1 1 1 0 0 -0 -0 -1 -1 -1 -0 -0 1 -0 -1 -1 -1 -0 -0 -0 -0 -1 -1 -0 -0 -0 -0 -0 -1
5 4 5 4 4 4 5 5 5 5 4 4 3 3 3 3 3 2 2 2 1 1 1 -0 0 -0 0 -1 -0 -0 -0 0 0 -0 -0 -2 -2 -1 -0 -1 -1 -1 -1 -1 -0 -0 -0 0 -0
4 6 5 5 5 5 4 6 7 5 4 4 4 4 3 3 2 3 2 2 1 1 1 1 0 -0 -0 -0 -0 -1 -0 -1 -1 -0 -1 -1 -2 -2 -1 0 -0 -1 -1 -1 -1 -0 -0 0 -0
6 7 10 6 6 6 5 8 6 4 4 4 4 4 4 3 3 2 2 1 1 1 1 1 0 0 -0 -0 -0 -1 -1 -1 -1 -1 -1 -1 -2 -2 -1 -0 -0 -1 -1 -1 -0 0 0 1 1
7 10 10 8 6 7 7 8 6 4 4 4 4 4 4 4 3 2 2 1 1 1 1 1 0 0 0 -0 -0 -1 -1 -1 -1 -2 -0 -2 -2 -1 -2 -1 -1 -1 -1 -0 -0 0 0 1 1
11 10 9 10 8 7 9 7 6 5 5 5 4 4 4 4 4 2 2 1 1 1 1 1 0 0 -0 -0 -0 -0 -0 -1 -2 -2 -2 -2 -2 -1 -2 -1 -1 -1 -0 0 0 0 0 1 1
8 9 9 8 6 8 8 7 5 5 5 5 5 5 4 4 3 2 2 1 1 1 1 1 1 0 0 1 1 1 1 0 -0 -1 -1 -2 -2 -1 -2 -1 -0 -0 0 0 0 1 1 1 1
7 9 8 7 6 6 7 7 5 5 5 5 6 5 5 5 4 3 2 2 2 2 1 1 1 1 0 0 0 -0 0 0 -0 -1 -1 -1 -2 -1 -1 -1 -0 -0 0 0 0 1 1 2 2
7 8 8 8 6 6 7 8 7 6 5 6 6 6 4 4 5 4 3 3 2 2 2 1 1 0 -0 -0 0 -0 0 -0 0 0 -0 -1 -2 -1 -2 -1 -1 -0 -0 1 0 0 1 3 2
8 6 7 7 8 10 7 12 8 8 8 8 7 7 6 4 4 4 3 3 3 2 1 1 1 0 -0 -0 0 -0 1 2 1 1 0 -0 -1 -2 -2 -1 -1 -1 -0 0 0 1 1 2 3
7 6 6 7 8 9 9 11 9 8 9 8 8 7 5 5 4 4 4 3 2 2 1 1 1 0 -0 -1 -0 0 1 1 1 1 0 0 -0 -2 -1 -1 -1 -0 -0 -0 -0 0 1 1 2
5 6 7 7 9 15 11 11 11 10 9 8 6 6 6 6 4 4 3 2 2 2 2 1 1 1 0 0 0 1 1 1 1 1 0 0 0 -0 -1 -1 -1 -1 -1 -0 -0 -0 0 1 1
6 8 12 13 13 14 10 12 12 9 9 7 6 6 6 5 4 4 4 3 3 3 2 2 1 2 1 0 0 0 0 0 1 -0 1 1 1 1 -0 -1 -0 -0 -1 -1 -1 -0 0 0 1
7 8 12 16 15 14 9 13 11 7 6 6 5 6 6 6 4 4 3 3 3 3 2 2 2 2 1 0 0 0 -1 1 0 0 0 0 0 0 -1 -1 -1 -1 -1 -1 -0 0 0 -0 0
7 9 7 11 11 14 11 10 10 9 8 8 7 6 6 5 4 4 3 2 2 2 1 2 1 1 1 0 0 0 0 0 0 -1 -1 -0 -0 -0 -0 -1 -1 -0 -1 -0 -0 0 1 0 0
7 7 11 11 18 19 14 13 15 12 10 9 9 8 6 5 5 5 3 3 2 2 1 1 1 1 1 1 0 1 0 -0 -0 -1 -0 -1 -1 -1 -0 -0 -1 -0 -0 -0 -0 0 0 1 1
8 8 9 10 11 18 19 17 10 10 9 9 8 7 7 5 5 4 3 2 2 2 1 1 1 1 1 0 0 0 0 -0 -0 -1 -1 -0 -1 -0 -0 -0 -0 -0 -0 -0 0 0 0 1 1
6 8 9 13 13 13 14 15 8 8 8 8 8 6 6 5 4 3 3 3 2 2 2 1 1 1 1 1 1 1 0 0 -0 -0 -0 -0 -0 -0 -0 -0 -0 -0 0 -0 0 1 1 1 1